Location: Newark
(42.8481°N, 0.4872°E)
Time: 13:48:20
(UTC+00:00)

Courier 1B Rocket - Visible Passes

Search period start: 30 October 2020 00:00
Search period end: 09 November 2020 00:00
Orbit: 920 x 1202 km, 28.2° (Epoch: 29 October)

Date Brightness Start Highest point End Pass type
(mag) Time Alt. Az. Time Alt. Az. Time Alt. Az.
30 Oct 7.0 17:25:25 10° SSW 17:29:42 18° SSE 17:34:11 10° ESE visible
30 Oct 6.5 19:16:43 10° SW 19:22:13 25° S 19:22:52 24° S visible
31 Oct 6.7 18:16:12 10° SW 18:21:22 23° S 18:25:34 14° SE visible
31 Oct 7.0 20:08:37 10° WSW 20:11:55 20° SSW 20:11:55 20° SSW visible
01 Nov 6.9 17:15:54 10° SSW 17:20:35 20° SSE 17:25:28 10° ESE visible
01 Nov 6.6 19:07:48 10° SW 19:13:07 24° S 19:14:37 22° SSE visible
02 Nov 6.7 18:07:09 10° SW 18:12:17 23° S 18:17:20 11° SE visible
02 Nov 7.0 20:00:03 10° SW 20:03:42 19° SSW 20:03:42 19° SSW visible
03 Nov 6.8 18:59:04 10° SW 19:04:02 22° S 19:06:28 18° SSE visible
04 Nov 6.8 17:58:16 10° SW 18:03:13 23° S 18:08:25 10° SE visible
04 Nov 7.1 19:51:48 10° SW 19:55:38 16° SSW 19:55:38 16° SSW visible
05 Nov 7.0 18:50:33 10° SW 18:54:57 18° SSW 18:58:30 13° SSE visible
06 Nov 7.0 17:49:35 10° SW 17:54:10 20° S 17:58:58 10° SE visible
06 Nov 7.4 19:44:24 10° SW 19:46:36 12° SSW 19:47:48 11° S visible
07 Nov 7.3 18:42:26 10° SW 18:45:51 15° SSW 18:49:23 10° SSE visible
08 Nov 7.2 17:41:08 10° SW 17:45:08 17° SSW 17:49:15 10° SSE visible
